AAR567 RKSI-ZMCK

Flight info

Callsign AAR567
Flight time N/A
Altitude 36000
Route NOPIK2Y NOPIK Y697 AGAVO/K0691S0660 A591 IKEKA W4 FZ/K0830S1100 W4 HCH W200 DOVIV W55 PAMRU W34 LADIX B339 POLHO Y345 MENUG MENUG2W
Aircraft A321/M-SDE3FGHIRWY/LB1

Departure

Time N/A
Airport Incheon International Airport (RKSI)

Arrival

Time 2026-05-01 08:49
Airport Ulaanbaatar Chinggis Khaan International Airport (ZMCK)
Time Latitude Longitude Altitude Speed Heading
2026-05-01 07:23 42.40575 115.53600 36018 ft 369 kts 316°
2026-05-01 07:24 42.46905 115.47652 36043 ft 369 kts 316°
2026-05-01 07:24 42.51123 115.43694 36042 ft 368 kts 316°
2026-05-01 07:25 42.55331 115.39734 36036 ft 368 kts 316°
2026-05-01 07:25 42.59529 115.35769 36044 ft 368 kts 316°
2026-05-01 07:26 42.63694 115.31813 36039 ft 368 kts 316°
2026-05-01 07:26 42.67892 115.27823 36027 ft 368 kts 316°
2026-05-01 07:27 42.72088 115.23841 36054 ft 367 kts 316°
2026-05-01 07:27 42.76279 115.19871 36054 ft 367 kts 316°
2026-05-01 07:28 42.80459 115.15899 36040 ft 366 kts 316°
2026-05-01 07:28 42.84635 115.11913 36043 ft 366 kts 316°
2026-05-01 07:29 42.88811 115.07928 36046 ft 366 kts 316°
2026-05-01 07:29 42.92985 115.03940 36045 ft 366 kts 316°
2026-05-01 07:30 42.97147 114.99949 36071 ft 366 kts 316°
2026-05-01 07:30 43.01308 114.95949 36069 ft 365 kts 316°
2026-05-01 07:31 43.05463 114.91950 36059 ft 365 kts 316°
2026-05-01 07:32 43.15901 114.81985 36055 ft 367 kts 316°
2026-05-01 07:33 43.22212 114.76119 36076 ft 367 kts 317°
2026-05-01 07:33 43.28543 114.70194 36065 ft 367 kts 316°
2026-05-01 07:34 43.34858 114.64258 36061 ft 366 kts 316°
2026-05-01 07:35 43.39067 114.60290 36062 ft 366 kts 316°
2026-05-01 07:35 43.43267 114.56326 36059 ft 367 kts 316°
2026-05-01 07:36 43.47467 114.52335 36082 ft 367 kts 316°
2026-05-01 07:36 43.51669 114.48345 36068 ft 367 kts 317°
2026-05-01 07:37 43.57978 114.42372 36068 ft 366 kts 317°
2026-05-01 07:37 43.62171 114.38392 36068 ft 366 kts 316°
2026-05-01 07:38 43.66360 114.34394 36069 ft 366 kts 316°
2026-05-01 07:39 43.72617 114.28404 36073 ft 365 kts 317°
2026-05-01 07:39 43.78846 114.22443 36058 ft 363 kts 316°
2026-05-01 07:40 43.82995 114.18459 36059 ft 363 kts 316°
2026-05-01 07:40 43.87152 114.14467 36057 ft 363 kts 316°
2026-05-01 07:41 43.91309 114.10470 36054 ft 364 kts 316°
2026-05-01 07:42 43.97536 114.04438 36085 ft 364 kts 316°
2026-05-01 07:42 44.01693 114.00422 36073 ft 364 kts 316°
2026-05-01 07:43 44.05839 113.96410 36068 ft 363 kts 316°
2026-05-01 07:43 44.12048 113.90376 36062 ft 363 kts 316°
2026-05-01 07:44 44.20321 113.82313 36055 ft 363 kts 316°
2026-05-01 07:45 44.24456 113.78282 36080 ft 363 kts 316°
2026-05-01 07:45 44.28591 113.74248 36074 ft 362 kts 316°
2026-05-01 07:46 44.32713 113.70198 36065 ft 362 kts 316°
2026-05-01 07:47 44.38896 113.64106 36066 ft 362 kts 316°
2026-05-01 07:47 44.43024 113.60052 36062 ft 363 kts 316°
2026-05-01 07:48 44.49205 113.53957 36085 ft 362 kts 315°
2026-05-01 07:48 44.53330 113.49881 36081 ft 363 kts 315°
2026-05-01 07:49 44.59519 113.43751 36078 ft 363 kts 315°
2026-05-01 07:50 44.63615 113.39669 36072 ft 363 kts 315°
2026-05-01 07:50 44.69808 113.33513 36078 ft 363 kts 315°
2026-05-01 07:51 44.73936 113.29395 36061 ft 364 kts 315°
2026-05-01 07:52 44.79623 113.22579 36055 ft 349 kts 300°
2026-05-01 07:52 44.82512 113.17086 36067 ft 349 kts 300°
2026-05-01 07:53 44.86842 113.08867 36063 ft 350 kts 300°
2026-05-01 07:53 44.89747 113.03345 36074 ft 350 kts 300°
2026-05-01 07:55 44.96995 112.89537 36072 ft 350 kts 300°
2026-05-01 07:56 45.04199 112.75708 36072 ft 350 kts 300°
2026-05-01 07:57 45.08533 112.67363 36105 ft 351 kts 300°
2026-05-01 07:58 45.14338 112.56178 36082 ft 353 kts 300°
2026-05-01 07:59 45.20113 112.44974 36067 ft 353 kts 299°
2026-05-01 08:00 45.28825 112.27996 36076 ft 355 kts 299°
2026-05-01 08:01 45.34637 112.16632 36072 ft 356 kts 299°
2026-05-01 08:02 45.38974 112.08109 36070 ft 357 kts 299°
2026-05-01 08:03 45.43327 111.99515 36111 ft 357 kts 299°
2026-05-01 08:03 45.47691 111.90883 36096 ft 358 kts 299°
2026-05-01 08:04 45.53033 111.80294 36072 ft 360 kts 299°
2026-05-01 08:05 45.57437 111.71554 36071 ft 362 kts 299°
2026-05-01 08:06 45.61829 111.62782 36075 ft 362 kts 299°
2026-05-01 08:07 45.67671 111.51069 36064 ft 364 kts 299°
2026-05-01 08:08 45.72083 111.42190 36072 ft 365 kts 299°
2026-05-01 08:09 45.77964 111.30323 36120 ft 365 kts 299°
2026-05-01 08:09 45.80908 111.24369 36091 ft 367 kts 300°
2026-05-01 08:10 45.86825 111.12358 36081 ft 369 kts 300°
2026-05-01 08:11 45.92744 111.00284 36091 ft 370 kts 300°
2026-05-01 08:12 45.97178 110.91185 36085 ft 371 kts 300°
2026-05-01 08:13 46.01635 110.82044 36091 ft 373 kts 300°
2026-05-01 08:13 46.06089 110.72870 36096 ft 373 kts 299°
2026-05-01 08:14 46.09030 110.66775 36096 ft 373 kts 300°
2026-05-01 08:14 46.12015 110.60586 36096 ft 374 kts 300°
2026-05-01 08:15 46.16473 110.51336 36113 ft 375 kts 300°
2026-05-01 08:16 46.19429 110.45191 36117 ft 375 kts 300°
2026-05-01 08:16 46.22404 110.38985 36115 ft 375 kts 300°
2026-05-01 08:17 46.25371 110.32778 36103 ft 376 kts 300°
2026-05-01 08:17 46.28348 110.26535 36099 ft 377 kts 300°
2026-05-01 08:18 46.31297 110.20330 36101 ft 377 kts 300°
2026-05-01 08:19 46.37244 110.07790 36113 ft 378 kts 300°
2026-05-01 08:19 46.40214 110.01515 36116 ft 378 kts 300°
2026-05-01 08:20 46.43186 109.95209 36117 ft 378 kts 300°
2026-05-01 08:20 46.46150 109.88915 36120 ft 378 kts 300°
2026-05-01 08:21 46.49114 109.82606 36151 ft 378 kts 300°
2026-05-01 08:21 46.52073 109.76281 36141 ft 379 kts 300°
2026-05-01 08:22 46.55038 109.69951 36121 ft 379 kts 300°
2026-05-01 08:22 46.57980 109.63635 36113 ft 380 kts 300°
2026-05-01 08:23 46.60948 109.57254 36110 ft 381 kts 300°
2026-05-01 08:23 46.63921 109.50864 36120 ft 381 kts 300°
2026-05-01 08:24 46.66893 109.44449 36122 ft 382 kts 300°
2026-05-01 08:24 46.69852 109.38033 36122 ft 382 kts 300°
2026-05-01 08:25 46.72819 109.31592 36125 ft 383 kts 300°
2026-05-01 08:25 46.75794 109.25130 36127 ft 384 kts 300°
2026-05-01 08:26 46.78764 109.18649 36128 ft 384 kts 300°
2026-05-01 08:26 46.81735 109.12175 36136 ft 384 kts 300°
2026-05-01 08:27 46.84656 109.05788 36153 ft 387 kts 300°
2026-05-01 08:27 46.87668 108.99170 36163 ft 391 kts 300°
2026-05-01 08:27 46.89152 108.95906 35967 ft 390 kts 300°
2026-05-01 08:28 46.90649 108.92615 35724 ft 387 kts 300°
2026-05-01 08:28 46.92130 108.89365 35414 ft 381 kts 300°
2026-05-01 08:28 46.93588 108.86163 34980 ft 376 kts 300°
2026-05-01 08:28 46.95029 108.82991 34556 ft 372 kts 300°
2026-05-01 08:29 46.96446 108.79858 34126 ft 367 kts 300°
2026-05-01 08:29 46.97846 108.76749 33636 ft 363 kts 300°
2026-05-01 08:29 46.99225 108.73685 33196 ft 359 kts 300°
2026-05-01 08:29 47.00613 108.70596 32760 ft 365 kts 300°
2026-05-01 08:30 47.02012 108.67491 32251 ft 364 kts 300°
2026-05-01 08:30 47.03407 108.64405 31763 ft 361 kts 300°
2026-05-01 08:30 47.04790 108.61343 31259 ft 359 kts 300°
2026-05-01 08:30 47.06163 108.58297 30762 ft 356 kts 301°
2026-05-01 08:31 47.07523 108.55283 30274 ft 354 kts 301°
2026-05-01 08:31 47.08876 108.52283 29735 ft 351 kts 301°
2026-05-01 08:31 47.10218 108.49309 29251 ft 348 kts 301°
2026-05-01 08:31 47.11549 108.46351 28779 ft 345 kts 301°
2026-05-01 08:32 47.12850 108.43455 28313 ft 342 kts 301°
2026-05-01 08:32 47.14153 108.40545 27854 ft 341 kts 301°
2026-05-01 08:32 47.15452 108.37639 27408 ft 339 kts 301°
2026-05-01 08:32 47.16740 108.34751 26990 ft 337 kts 301°
2026-05-01 08:33 47.18021 108.31885 26548 ft 334 kts 302°
2026-05-01 08:33 47.19294 108.29036 26122 ft 332 kts 302°
2026-05-01 08:33 47.20557 108.26208 25714 ft 330 kts 302°
2026-05-01 08:33 47.21825 108.23364 25311 ft 344 kts 302°
2026-05-01 08:34 47.23176 108.20323 24868 ft 362 kts 302°
2026-05-01 08:34 47.24561 108.17196 24416 ft 366 kts 302°
2026-05-01 08:34 47.25949 108.14062 23957 ft 365 kts 302°
2026-05-01 08:34 47.27333 108.10942 23459 ft 363 kts 302°
2026-05-01 08:35 47.28710 108.07841 22946 ft 361 kts 302°
2026-05-01 08:35 47.30078 108.04755 22466 ft 359 kts 302°
2026-05-01 08:35 47.31440 108.01676 21983 ft 357 kts 302°
2026-05-01 08:35 47.32788 107.98613 21480 ft 355 kts 302°
2026-05-01 08:36 47.34127 107.95569 20982 ft 353 kts 302°
2026-05-01 08:36 47.35461 107.92537 20478 ft 351 kts 303°
2026-05-01 08:36 47.36781 107.89532 19971 ft 348 kts 303°
2026-05-01 08:36 47.38098 107.86533 19474 ft 346 kts 303°
2026-05-01 08:37 47.39402 107.83558 18973 ft 344 kts 303°
2026-05-01 08:37 47.40586 107.80508 18474 ft 342 kts 296°
2026-05-01 08:37 47.41600 107.77345 17929 ft 340 kts 296°
2026-05-01 08:37 47.42609 107.74197 17429 ft 339 kts 296°
2026-05-01 08:38 47.43614 107.71062 16948 ft 335 kts 297°
2026-05-01 08:38 47.44596 107.67995 16463 ft 334 kts 297°
2026-05-01 08:38 47.45581 107.64919 15979 ft 329 kts 297°
2026-05-01 08:38 47.46555 107.61868 15494 ft 327 kts 297°
2026-05-01 08:39 47.47528 107.58820 15016 ft 325 kts 297°
2026-05-01 08:39 47.48488 107.55809 14569 ft 319 kts 297°
2026-05-01 08:39 47.49426 107.52860 13986 ft 317 kts 297°
2026-05-01 08:39 47.50357 107.49929 13445 ft 311 kts 298°
2026-05-01 08:40 47.52140 107.44317 12558 ft 296 kts 299°
2026-05-01 08:40 47.53003 107.41591 12129 ft 290 kts 299°
2026-05-01 08:40 47.53851 107.38909 11713 ft 285 kts 297°
2026-05-01 08:41 47.54688 107.36272 11303 ft 280 kts 298°
2026-05-01 08:41 47.55418 107.33626 10895 ft 277 kts 292°
2026-05-01 08:41 47.55938 107.30900 10495 ft 274 kts 288°
2026-05-01 08:41 47.56406 107.28203 10260 ft 264 kts 288°
2026-05-01 08:42 47.56858 107.25670 10255 ft 246 kts 289°
2026-05-01 08:42 47.57284 107.23319 10274 ft 225 kts 290°
2026-05-01 08:42 47.57671 107.21180 10259 ft 205 kts 290°
2026-05-01 08:42 47.58035 107.19176 9768 ft 196 kts 290°
2026-05-01 08:43 47.58379 107.17277 9230 ft 186 kts 291°
2026-05-01 08:43 47.58707 107.15464 8873 ft 181 kts 290°
2026-05-01 08:43 47.59038 107.13642 8582 ft 186 kts 289°
2026-05-01 08:43 47.59370 107.11800 8317 ft 188 kts 289°
2026-05-01 08:44 47.59707 107.09925 8066 ft 188 kts 289°
2026-05-01 08:44 47.60044 107.08050 7816 ft 188 kts 289°
2026-05-01 08:44 47.60376 107.06196 7558 ft 186 kts 289°
2026-05-01 08:44 47.60707 107.04353 7321 ft 184 kts 290°
2026-05-01 08:45 47.61026 107.02561 7069 ft 171 kts 291°
2026-05-01 08:45 47.61311 107.00956 6867 ft 152 kts 291°
2026-05-01 08:45 47.61568 106.99519 6668 ft 139 kts 291°
2026-05-01 08:45 47.61809 106.98174 6487 ft 131 kts 291°
2026-05-01 08:46 47.62046 106.96862 6309 ft 133 kts 291°
2026-05-01 08:46 47.62281 106.95542 6123 ft 133 kts 291°
2026-05-01 08:46 47.62516 106.94224 5940 ft 131 kts 292°
2026-05-01 08:46 47.62744 106.92937 5751 ft 128 kts 294°
2026-05-01 08:47 47.62969 106.91666 5573 ft 125 kts 294°
2026-05-01 08:47 47.63193 106.90424 5397 ft 129 kts 294°
2026-05-01 08:47 47.63432 106.89104 5227 ft 132 kts 292°
2026-05-01 08:47 47.63658 106.87817 5028 ft 128 kts 295°
2026-05-01 08:48 47.63811 106.86968 4888 ft 133 kts 292°
2026-05-01 08:48 47.64129 106.85204 4669 ft 134 kts 290°
2026-05-01 08:48 47.64281 106.84326 4553 ft 133 kts 290°
2026-05-01 08:48 47.64560 106.82757 4502 ft 96 kts 284°
2026-05-01 08:49 47.64661 106.82181 4502 ft 79 kts 284°
2026-05-01 08:49 47.64780 106.81508 4504 ft 49 kts 284°
2026-05-01 08:49 47.64845 106.81141 4508 ft 31 kts 285°
2026-05-01 08:49 47.64930 106.80903 4508 ft 22 kts 308°
2026-05-01 08:50 47.65026 106.80806 4509 ft 15 kts
2026-05-01 08:50 47.65058 106.80943 4505 ft 18 kts 104°
2026-05-01 08:50 47.65021 106.81144 4505 ft 21 kts 105°
2026-05-01 08:50 47.64984 106.81346 4505 ft 18 kts 105°
2026-05-01 08:51 47.64965 106.81496 4507 ft 15 kts 83°
2026-05-01 08:51 47.65011 106.81607 4504 ft 11 kts 59°
2026-05-01 08:51 47.65008 106.81740 4505 ft 14 kts 104°
2026-05-01 08:51 47.64980 106.81902 4505 ft 18 kts 105°
2026-05-01 08:52 47.64949 106.82072 4505 ft 16 kts 104°
2026-05-01 08:52 47.64930 106.82180 4503 ft 9 kts 104°
2026-05-01 08:52 47.64935 106.82235 4503 ft 4 kts 30°
2026-05-01 08:52 47.64977 106.82232 4505 ft 6 kts 354°
2026-05-01 08:53 47.65019 106.82226 4504 ft 5 kts 352°
2026-05-01 08:53 47.65047 106.82219 4504 ft 2 kts 353°
2026-05-01 08:53 47.65055 106.82219 4506 ft 1 kts 360°